Погода в Огородтахе

Россия / Республика Саха (Якутия)     62°27′17″N   130°08′58″E
темп.,
°C
ветер,
м/с
пор.,
м/с
влажн.,
%
обл.,
%
осадки,
мм/ч
давл.,
гПа
погр.,
м
1 марта, пн
пн100:00−26зсз2999100 0.2 1023683
03:00−27з2798100 0.4 1023576
06:00−27з3896100 0.1 1024731
09:00−26з4793100 0.3 1024792
12:00−25зсз4690100 0.1 1025851
15:00−25зсз4689100 0.2 1024944
18:00−26з2696100 0.1 1025351
21:00−27з3796100 0.1 1025435
2 марта, вт
вт200:00−28з2597100 0.1 1025245
03:00−29з2598100 0.1 1025154
06:00−30з2498100 0.1 1026125
09:00−30з259799 0.1 1026199
12:00−28з2391100 0.0 1026476
15:00−27зсз2390100 0.1 1025576
18:00−30з1196100 0.0 102519
21:00−30з1297100 0.0 102522
3 марта, ср
ср300:00−30зсз1298100 0.1 102433
03:00−31зсз1298100 0.1 102440
06:00−31зсз1299100 0.1 102358
09:00−31зсз1297100 0.1 1022188
12:00−29зсз2292100 0.1 1021441
15:00−28зсз2392100 0.1 1019481
18:00−29зсз2298100 0.1 101965
21:00−30зсз2597100 0.1 1018297
4 марта, чт
чт400:00−31з2698100 0.1 1018310
03:00−31з3797100 0.2 1017414
06:00−31з3795100 0.1 1017489
09:00−31з3692100 0.1 1017608
12:00−29зсз3588100 0.1 1017795
15:00−28зсз3587100 0.1 1018813
18:00−32з2394100 0.0 102063
21:00−35з379585 0.0 1021128
5 марта, пт
пт500:00−36з379554 0.0 1021146
03:00−37з389464 0.0 1022212
06:00−38з399488 0.0 1023246
09:00−36зсз389282 0.0 1023364
12:00−31зсз479190 0.0 1023478
15:00−29зсз489095 0.0 1024567
18:00−30зсз41192100 0.0 1024497
21:00−31зсз41192100 0.0 1024479